TUA732 UWKD-UTAA

Flight info

Callsign TUA732
Flight time 3h 10m
Altitude 35000
Route N0460F350 INTAR M161 GUTAN A368 URL M158 RENPI Z102 NEPIL N73 GIRUL Q161 TIROM A87 MAMED
Aircraft B738/M-Q/L

Departure

Time 2026-04-21 04:40
Airport Kazan International Airport (UWKD)

Arrival

Time 2026-04-21 07:50
Airport Ashgabat International Airport (UTAA)
Time Latitude Longitude Altitude Speed Heading
2026-04-21 04:13 55.60707 49.29593 414 ft 0 kts 35°
2026-04-21 04:31 55.60712 49.29599 414 ft 2 kts 35°
2026-04-21 04:31 55.60733 49.29619 414 ft 4 kts 11°
2026-04-21 04:31 55.60772 49.29581 412 ft 8 kts 310°
2026-04-21 04:32 55.60809 49.29477 410 ft 10 kts 283°
2026-04-21 04:32 55.60778 49.29385 411 ft 8 kts 217°
2026-04-21 04:32 55.60734 49.29332 412 ft 7 kts 213°
2026-04-21 04:32 55.60689 49.29278 412 ft 9 kts 213°
2026-04-21 04:33 55.60618 49.29187 410 ft 14 kts 222°
2026-04-21 04:33 55.60578 49.29042 409 ft 13 kts 269°
2026-04-21 04:33 55.60585 49.28866 408 ft 14 kts 276°
2026-04-21 04:33 55.60590 49.28695 407 ft 14 kts 273°
2026-04-21 04:34 55.60626 49.28534 405 ft 14 kts 303°
2026-04-21 04:34 55.60682 49.28387 402 ft 15 kts 303°
2026-04-21 04:34 55.60746 49.28224 399 ft 16 kts 305°
2026-04-21 04:34 55.60809 49.28060 397 ft 16 kts 304°
2026-04-21 04:35 55.60876 49.27885 392 ft 18 kts 304°
2026-04-21 04:35 55.60954 49.27690 386 ft 20 kts 304°
2026-04-21 04:35 55.61035 49.27477 382 ft 21 kts 304°
2026-04-21 04:35 55.61123 49.27252 377 ft 22 kts 304°
2026-04-21 04:36 55.61216 49.27012 372 ft 24 kts 304°
2026-04-21 04:36 55.61313 49.26763 367 ft 25 kts 304°
2026-04-21 04:36 55.61416 49.26496 360 ft 27 kts 303°
2026-04-21 04:36 55.61523 49.26215 356 ft 28 kts 304°
2026-04-21 04:37 55.61635 49.25929 350 ft 28 kts 305°
2026-04-21 04:37 55.61749 49.25632 343 ft 29 kts 305°
2026-04-21 04:37 55.61820 49.25453 341 ft 14 kts 304°
2026-04-21 04:37 55.61846 49.25294 337 ft 13 kts 235°
2026-04-21 04:38 55.61803 49.25233 337 ft 0 kts 214°
2026-04-21 04:38 55.61795 49.25223 337 ft 2 kts 213°
2026-04-21 04:38 55.61760 49.25183 337 ft 8 kts 213°
2026-04-21 04:38 55.61694 49.25155 337 ft 11 kts 147°
2026-04-21 04:39 55.61599 49.25370 344 ft 51 kts 125°
2026-04-21 04:39 55.61268 49.26228 360 ft 115 kts 123°
2026-04-21 04:39 55.60705 49.27667 388 ft 166 kts 127°
2026-04-21 04:39 55.60045 49.29330 988 ft 164 kts 130°
2026-04-21 04:40 55.59375 49.30976 1626 ft 170 kts 129°
2026-04-21 04:40 55.58688 49.32782 2082 ft 183 kts 130°
2026-04-21 04:40 55.57941 49.34577 2572 ft 186 kts 131°
2026-04-21 04:40 55.57196 49.36523 2921 ft 196 kts 127°
2026-04-21 04:41 55.56406 49.38610 3152 ft 213 kts 128°
2026-04-21 04:41 55.55520 49.40890 3303 ft 237 kts 127°
2026-04-21 04:41 55.54531 49.43202 3839 ft 238 kts 139°
2026-04-21 04:41 55.53268 49.45207 4251 ft 250 kts 141°
2026-04-21 04:42 55.51962 49.47286 4663 ft 261 kts 139°
2026-04-21 04:42 55.50672 49.49479 5483 ft 256 kts 138°
2026-04-21 04:42 55.49400 49.51662 6090 ft 259 kts 138°
2026-04-21 04:42 55.48111 49.53875 6533 ft 265 kts 137°
2026-04-21 04:43 55.46784 49.56154 6573 ft 265 kts 137°
2026-04-21 04:43 55.45477 49.58402 6576 ft 261 kts 138°
2026-04-21 04:43 55.44176 49.60637 6574 ft 260 kts 137°
2026-04-21 04:43 55.42893 49.62837 6573 ft 260 kts 137°
2026-04-21 04:44 55.41597 49.65060 6574 ft 260 kts 139°
2026-04-21 04:44 55.40303 49.67275 6575 ft 260 kts 139°
2026-04-21 04:44 55.39009 49.69490 6578 ft 260 kts 139°
2026-04-21 04:44 55.37722 49.71690 6581 ft 260 kts 139°
2026-04-21 04:45 55.36421 49.73912 6587 ft 259 kts 139°
2026-04-21 04:45 55.35133 49.76110 6586 ft 259 kts 139°
2026-04-21 04:45 55.33849 49.78298 6589 ft 259 kts 139°
2026-04-21 04:45 55.32562 49.80489 6594 ft 260 kts 139°
2026-04-21 04:46 55.31261 49.82703 6593 ft 259 kts 140°
2026-04-21 04:46 55.29920 49.84813 6596 ft 256 kts 148°
2026-04-21 04:46 55.28302 49.86136 6744 ft 262 kts 165°
2026-04-21 04:46 55.26602 49.86977 7594 ft 254 kts 166°
2026-04-21 04:47 55.24903 49.87847 8144 ft 259 kts 165°
2026-04-21 04:47 55.23163 49.88761 8742 ft 261 kts 165°
2026-04-21 04:47 55.21418 49.89680 9311 ft 264 kts 164°
2026-04-21 04:47 55.19661 49.90606 9854 ft 267 kts 164°
2026-04-21 04:48 55.17847 49.91561 10028 ft 284 kts 164°
2026-04-21 04:48 55.15921 49.92573 10404 ft 293 kts 163°
2026-04-21 04:48 55.13967 49.93601 11018 ft 294 kts 163°
2026-04-21 04:48 55.12008 49.94630 11591 ft 296 kts 163°
2026-04-21 04:49 55.10035 49.95666 12184 ft 299 kts 163°
2026-04-21 04:49 55.08064 49.96699 12790 ft 300 kts 163°
2026-04-21 04:49 55.06066 49.97745 13343 ft 304 kts 163°
2026-04-21 04:49 55.04023 49.98813 13935 ft 307 kts 163°
2026-04-21 04:50 55.01977 49.99882 14529 ft 310 kts 163°
2026-04-21 04:50 54.99921 50.00955 15145 ft 312 kts 163°
2026-04-21 04:50 54.97862 50.02028 15798 ft 312 kts 163°
2026-04-21 04:50 54.95797 50.03103 16395 ft 313 kts 163°
2026-04-21 04:51 54.93681 50.04205 16947 ft 315 kts 163°
2026-04-21 04:51 54.91598 50.05287 17542 ft 316 kts 163°
2026-04-21 04:51 54.89499 50.06376 18079 ft 318 kts 163°
2026-04-21 04:51 54.87381 50.07473 18610 ft 320 kts 163°
2026-04-21 04:52 54.85254 50.08575 19136 ft 322 kts 163°
2026-04-21 04:52 54.83097 50.09691 19597 ft 326 kts 163°
2026-04-21 04:52 54.80931 50.10810 20142 ft 326 kts 163°
2026-04-21 04:52 54.78757 50.11933 20615 ft 329 kts 164°
2026-04-21 04:53 54.76584 50.13054 21097 ft 330 kts 165°
2026-04-21 04:53 54.74388 50.14183 21548 ft 333 kts 165°
2026-04-21 04:53 54.72155 50.15331 21983 ft 335 kts 165°
2026-04-21 04:53 54.69936 50.16471 22453 ft 336 kts 165°
2026-04-21 04:54 54.67663 50.17637 22846 ft 340 kts 165°
2026-04-21 04:54 54.65407 50.18794 23274 ft 341 kts 165°
2026-04-21 04:54 54.63140 50.19955 23705 ft 343 kts 165°
2026-04-21 04:54 54.60861 50.21122 24106 ft 344 kts 165°
2026-04-21 04:55 54.58578 50.22290 24454 ft 347 kts 166°
2026-04-21 04:55 54.56236 50.23487 24816 ft 349 kts 166°
2026-04-21 04:55 54.53923 50.24667 25189 ft 350 kts 166°
2026-04-21 04:55 54.51581 50.25860 25513 ft 353 kts 166°
2026-04-21 04:56 54.49220 50.27061 25805 ft 356 kts 166°
2026-04-21 04:56 54.46852 50.28265 26162 ft 358 kts 166°
2026-04-21 04:56 54.44463 50.29476 26424 ft 361 kts 166°
2026-04-21 04:56 54.42061 50.30600 26715 ft 361 kts 169°
2026-04-21 04:57 54.39599 50.31350 26951 ft 362 kts 176°
2026-04-21 04:57 54.37080 50.31466 27202 ft 363 kts 183°
2026-04-21 04:57 54.34574 50.31180 27475 ft 364 kts 186°
2026-04-21 04:57 54.32036 50.30780 27686 ft 367 kts 186°
2026-04-21 04:58 54.29489 50.30359 27914 ft 369 kts 186°
2026-04-21 04:58 54.26940 50.29939 28152 ft 371 kts 186°
2026-04-21 04:58 54.24345 50.29515 28384 ft 373 kts 186°
2026-04-21 04:58 54.21772 50.29095 28590 ft 376 kts 186°
2026-04-21 04:59 54.19188 50.28674 28758 ft 379 kts 186°
2026-04-21 04:59 54.16542 50.28242 28979 ft 380 kts 186°
2026-04-21 04:59 54.13929 50.27816 29221 ft 381 kts 186°
2026-04-21 04:59 54.11301 50.27389 29467 ft 383 kts 187°
2026-04-21 05:00 54.08642 50.26957 29637 ft 385 kts 187°
2026-04-21 05:00 54.05958 50.26520 29800 ft 388 kts 187°
2026-04-21 05:00 54.00588 50.25649 30234 ft 392 kts 186°
2026-04-21 05:01 53.97869 50.25209 30409 ft 394 kts 187°
2026-04-21 05:01 53.95152 50.24770 30605 ft 396 kts 187°
2026-04-21 05:01 53.92420 50.24329 30799 ft 398 kts 187°
2026-04-21 05:01 53.89677 50.23886 31008 ft 399 kts 187°
2026-04-21 05:02 53.86900 50.23439 31219 ft 401 kts 187°
2026-04-21 05:02 53.84127 50.22995 31416 ft 403 kts 187°
2026-04-21 05:02 53.81338 50.22547 31619 ft 404 kts 187°
2026-04-21 05:02 53.78556 50.22101 31764 ft 407 kts 187°
2026-04-21 05:03 53.75717 50.21647 31979 ft 408 kts 187°
2026-04-21 05:03 53.72894 50.21195 32110 ft 411 kts 187°
2026-04-21 05:03 53.70055 50.20742 32273 ft 413 kts 187°
2026-04-21 05:03 53.67198 50.20287 32429 ft 414 kts 187°
2026-04-21 05:04 53.64347 50.19833 32618 ft 416 kts 187°
2026-04-21 05:04 53.61475 50.19377 32752 ft 418 kts 187°
2026-04-21 05:04 53.58582 50.18916 32889 ft 420 kts 187°
2026-04-21 05:04 53.55653 50.18481 33082 ft 421 kts 186°
2026-04-21 05:05 53.49796 50.18700 33384 ft 429 kts 174°
2026-04-21 05:05 53.46875 50.19657 33581 ft 431 kts 170°
2026-04-21 05:05 53.43950 50.20895 33725 ft 435 kts 168°
2026-04-21 05:06 53.41015 50.22230 33928 ft 435 kts 168°
2026-04-21 05:06 53.38106 50.23575 34054 ft 438 kts 168°
2026-04-21 05:06 53.35184 50.24924 34263 ft 437 kts 168°
2026-04-21 05:06 53.32301 50.26249 34495 ft 436 kts 168°
2026-04-21 05:07 53.29339 50.27604 34686 ft 436 kts 168°
2026-04-21 05:07 53.26411 50.28938 34703 ft 438 kts 168°
2026-04-21 05:07 53.20580 50.31588 34714 ft 436 kts 168°
2026-04-21 05:08 53.14761 50.34226 34716 ft 434 kts 168°
2026-04-21 05:08 53.08944 50.36850 34717 ft 434 kts 169°
2026-04-21 05:09 53.03099 50.39478 34725 ft 434 kts 169°
2026-04-21 05:09 52.97314 50.42072 34713 ft 433 kts 169°
2026-04-21 05:10 52.91501 50.44671 34738 ft 433 kts 169°
2026-04-21 05:10 52.85699 50.47259 34760 ft 434 kts 169°
2026-04-21 05:11 52.79894 50.49840 34758 ft 434 kts 169°
2026-04-21 05:11 52.74044 50.52434 34750 ft 434 kts 169°
2026-04-21 05:12 52.68230 50.55006 34774 ft 433 kts 169°
2026-04-21 05:12 52.62441 50.57561 34775 ft 431 kts 169°
2026-04-21 05:13 52.56652 50.60103 34776 ft 433 kts 169°
2026-04-21 05:13 52.50875 50.62638 34784 ft 431 kts 169°
2026-04-21 05:14 52.45054 50.65182 34782 ft 432 kts 170°
2026-04-21 05:14 52.39277 50.67702 34772 ft 430 kts 170°
2026-04-21 05:15 52.33512 50.70208 34787 ft 432 kts 170°
2026-04-21 05:15 52.27745 50.72710 34803 ft 432 kts 171°
2026-04-21 05:16 52.21941 50.75218 34792 ft 433 kts 171°
2026-04-21 05:16 52.16130 50.77723 34794 ft 433 kts 170°
2026-04-21 05:17 52.10316 50.80219 34790 ft 433 kts 171°
2026-04-21 05:17 52.04508 50.82708 34788 ft 431 kts 171°
2026-04-21 05:18 51.98728 50.85181 34788 ft 431 kts 171°
2026-04-21 05:18 51.92926 50.87660 34797 ft 432 kts 171°
2026-04-21 05:19 51.87148 50.90151 34810 ft 431 kts 171°
2026-04-21 05:19 51.81369 50.92643 34798 ft 430 kts 171°
2026-04-21 05:20 51.75574 50.95126 34814 ft 433 kts 171°
2026-04-21 05:20 51.69796 50.97798 34817 ft 435 kts 166°
2026-04-21 05:21 51.64286 51.01968 34815 ft 444 kts 155°
2026-04-21 05:21 51.59072 51.07339 34824 ft 447 kts 153°
2026-04-21 05:22 51.53883 51.12872 34821 ft 447 kts 152°
2026-04-21 05:22 51.48711 51.18357 34828 ft 447 kts 153°
2026-04-21 05:23 51.43523 51.23837 34833 ft 447 kts 152°
2026-04-21 05:23 51.38354 51.29361 34849 ft 447 kts 152°
2026-04-21 05:24 51.33231 51.34849 34852 ft 446 kts 152°
2026-04-21 05:24 51.28073 51.40350 34869 ft 447 kts 152°
2026-04-21 05:25 51.22879 51.45867 34861 ft 447 kts 152°
2026-04-21 05:25 51.17668 51.51173 34860 ft 441 kts 158°
2026-04-21 05:26 51.11976 51.54282 34863 ft 425 kts 178°
2026-04-21 05:26 51.06139 51.54968 34863 ft 421 kts 182°
2026-04-21 05:27 51.00276 51.55358 34870 ft 420 kts 183°
2026-04-21 05:27 50.94441 51.55736 34864 ft 420 kts 183°
2026-04-21 05:28 50.88652 51.56115 34876 ft 419 kts 183°
2026-04-21 05:28 50.82799 51.56498 34879 ft 421 kts 183°
2026-04-21 05:29 50.76963 51.56879 34886 ft 420 kts 183°
2026-04-21 05:29 50.71139 51.57264 34898 ft 420 kts 183°
2026-04-21 05:30 50.65303 51.57646 34904 ft 419 kts 183°
2026-04-21 05:30 50.59514 51.58021 34901 ft 419 kts 183°
2026-04-21 05:31 50.53682 51.58400 34901 ft 418 kts 183°
2026-04-21 05:31 50.47895 51.58774 34911 ft 418 kts 183°
2026-04-21 05:32 50.42085 51.59151 34906 ft 417 kts 183°
2026-04-21 05:32 50.36291 51.59547 34904 ft 418 kts 183°
2026-04-21 05:33 50.30496 51.59949 34906 ft 418 kts 183°
2026-04-21 05:33 50.24703 51.60347 34917 ft 418 kts 183°
2026-04-21 05:34 50.18911 51.60743 34905 ft 417 kts 183°
2026-04-21 05:34 50.13109 51.61137 34908 ft 416 kts 183°
2026-04-21 05:35 50.07325 51.61533 34911 ft 417 kts 183°
2026-04-21 05:35 50.01556 51.61924 34911 ft 416 kts 183°
2026-04-21 05:36 49.95770 51.62315 34915 ft 417 kts 183°
2026-04-21 05:36 49.90000 51.62705 34909 ft 415 kts 183°
2026-04-21 05:37 49.84245 51.63094 34923 ft 415 kts 183°
2026-04-21 05:37 49.78462 51.63481 34924 ft 416 kts 183°
2026-04-21 05:38 49.72693 51.63868 34924 ft 416 kts 183°
2026-04-21 05:38 49.66914 51.64254 34936 ft 417 kts 183°
2026-04-21 05:39 49.61153 51.64639 34930 ft 416 kts 183°
2026-04-21 05:39 49.55405 51.65022 34945 ft 415 kts 184°
2026-04-21 05:40 49.49614 51.65406 34932 ft 415 kts 184°
2026-04-21 05:40 49.43880 51.65783 34945 ft 416 kts 184°
2026-04-21 05:41 49.38120 51.66166 34944 ft 414 kts 184°
2026-04-21 05:41 49.32394 51.66546 34951 ft 413 kts 184°
2026-04-21 05:42 49.26668 51.66921 34948 ft 414 kts 184°
2026-04-21 05:42 49.20898 51.67298 34953 ft 415 kts 184°
2026-04-21 05:43 49.15142 51.67675 34961 ft 414 kts 184°
2026-04-21 05:43 49.09409 51.68051 34958 ft 414 kts 184°
2026-04-21 05:44 49.03642 51.68426 34955 ft 414 kts 184°
2026-04-21 05:44 48.97877 51.68799 34955 ft 415 kts 184°
2026-04-21 05:45 48.92126 51.69172 34960 ft 414 kts 184°
2026-04-21 05:45 48.86371 51.69541 34961 ft 414 kts 184°
2026-04-21 05:46 48.80639 51.69911 34967 ft 414 kts 184°
2026-04-21 05:46 48.74911 51.70279 34976 ft 412 kts 184°
2026-04-21 05:47 48.69197 51.70644 34957 ft 413 kts 184°
2026-04-21 05:47 48.63452 51.71008 34958 ft 414 kts 183°
2026-04-21 05:48 48.57688 51.71376 34983 ft 413 kts 184°
2026-04-21 05:48 48.51971 51.71740 34965 ft 414 kts 184°
2026-04-21 05:49 48.46240 51.72104 34966 ft 414 kts 184°
2026-04-21 05:49 48.40483 51.72469 34963 ft 414 kts 184°
2026-04-21 05:50 48.34725 51.72832 34967 ft 414 kts 183°
2026-04-21 05:50 48.28997 51.73192 34968 ft 414 kts 184°
2026-04-21 05:51 48.23243 51.73555 34976 ft 412 kts 184°
2026-04-21 05:51 48.17481 51.73916 34977 ft 414 kts 183°
2026-04-21 05:52 48.11738 51.74276 34974 ft 413 kts 183°
2026-04-21 05:52 48.06028 51.74633 34980 ft 412 kts 183°
2026-04-21 05:53 48.00323 51.74989 34979 ft 413 kts 183°
2026-04-21 05:53 47.94561 51.75346 34969 ft 413 kts 183°
2026-04-21 05:54 47.88868 51.75700 34973 ft 413 kts 183°
2026-04-21 05:54 47.83135 51.76053 34978 ft 412 kts 183°
2026-04-21 05:55 47.77413 51.76397 34971 ft 412 kts 183°
2026-04-21 05:55 47.71712 51.76739 34972 ft 412 kts 183°
2026-04-21 05:56 47.65994 51.77082 34980 ft 413 kts 183°
2026-04-21 05:56 47.60273 51.77423 34980 ft 412 kts 183°
2026-04-21 05:57 47.54536 51.77766 34987 ft 411 kts 183°
2026-04-21 05:57 47.48857 51.78105 34990 ft 411 kts 183°
2026-04-21 05:58 47.43169 51.78443 35002 ft 410 kts 183°
2026-04-21 05:58 47.37472 51.78778 35001 ft 411 kts 183°
2026-04-21 05:59 47.31776 51.79118 35004 ft 410 kts 182°
2026-04-21 06:00 47.23259 51.79624 35001 ft 409 kts 182°
2026-04-21 06:00 47.17586 51.80313 35005 ft 414 kts 175°
2026-04-21 06:01 47.12113 51.83311 35005 ft 429 kts 156°
2026-04-21 06:01 47.07185 51.88322 34998 ft 434 kts 148°
2026-04-21 06:02 47.02464 51.93795 34963 ft 433 kts 148°
2026-04-21 06:02 46.97755 51.99256 34962 ft 434 kts 148°
2026-04-21 06:03 46.93051 52.04677 35002 ft 432 kts 148°
2026-04-21 06:03 46.88350 52.10068 35015 ft 433 kts 148°
2026-04-21 06:04 46.83607 52.15487 35003 ft 431 kts 148°
2026-04-21 06:04 46.78893 52.20859 35007 ft 432 kts 148°
2026-04-21 06:05 46.74180 52.26216 35008 ft 432 kts 148°
2026-04-21 06:05 46.69466 52.31561 35000 ft 432 kts 148°
2026-04-21 06:06 46.64745 52.36903 35008 ft 433 kts 148°
2026-04-21 06:06 46.59915 52.41963 35006 ft 424 kts 156°
2026-04-21 06:06 46.57269 52.43771 35006 ft 416 kts 167°
2026-04-21 06:07 46.54509 52.44782 35003 ft 410 kts 174°
2026-04-21 06:07 46.48883 52.45663 34999 ft 405 kts 181°
2026-04-21 06:08 46.43265 52.46114 34992 ft 405 kts 181°
2026-04-21 06:08 46.37676 52.46555 34991 ft 406 kts 181°
2026-04-21 06:09 46.32037 52.47009 34994 ft 406 kts 181°
2026-04-21 06:09 46.26432 52.47466 34990 ft 405 kts 181°
2026-04-21 06:10 46.20809 52.47924 34992 ft 405 kts 181°
2026-04-21 06:10 46.15188 52.48384 34995 ft 404 kts 181°
2026-04-21 06:11 46.09602 52.48838 34999 ft 403 kts 181°
2026-04-21 06:11 46.04004 52.49292 34992 ft 404 kts 181°
2026-04-21 06:12 45.98410 52.49748 34996 ft 403 kts 181°
2026-04-21 06:12 45.92833 52.50198 35051 ft 404 kts 181°
2026-04-21 06:12 45.90033 52.50423 34933 ft 405 kts 181°
2026-04-21 06:13 45.87242 52.50650 34974 ft 403 kts 181°
2026-04-21 06:13 45.81627 52.51104 35006 ft 405 kts 181°
2026-04-21 06:14 45.76024 52.51554 35000 ft 404 kts 181°
2026-04-21 06:14 45.70435 52.52003 34995 ft 404 kts 181°
2026-04-21 06:15 45.64798 52.52454 35003 ft 405 kts 181°
2026-04-21 06:15 45.59201 52.52903 35001 ft 405 kts 181°
2026-04-21 06:16 45.53590 52.53323 34995 ft 404 kts 184°
2026-04-21 06:16 45.48034 52.53083 34994 ft 401 kts 187°
2026-04-21 06:17 45.42461 52.52647 34998 ft 400 kts 187°
2026-04-21 06:17 45.36911 52.52249 34993 ft 401 kts 187°
2026-04-21 06:18 45.31345 52.51869 35001 ft 401 kts 187°
2026-04-21 06:18 45.25810 52.51500 34994 ft 400 kts 187°
2026-04-21 06:19 45.20238 52.51132 34994 ft 401 kts 187°
2026-04-21 06:19 45.14674 52.50767 34997 ft 400 kts 187°
2026-04-21 06:20 45.09112 52.50405 34996 ft 401 kts 187°
2026-04-21 06:20 45.03566 52.50044 34994 ft 401 kts 187°
2026-04-21 06:21 44.97974 52.49682 35000 ft 400 kts 187°
2026-04-21 06:21 44.92419 52.49321 34992 ft 400 kts 187°
2026-04-21 06:22 44.86839 52.48960 34996 ft 402 kts 187°
2026-04-21 06:22 44.81249 52.48600 34994 ft 401 kts 187°
2026-04-21 06:23 44.75691 52.48243 34994 ft 402 kts 187°
2026-04-21 06:23 44.70129 52.47887 34990 ft 401 kts 187°
2026-04-21 06:24 44.64558 52.47529 34992 ft 402 kts 187°
2026-04-21 06:24 44.58955 52.47171 34993 ft 401 kts 187°
2026-04-21 06:25 44.53394 52.46816 34990 ft 402 kts 187°
2026-04-21 06:25 44.47827 52.46462 34993 ft 400 kts 187°
2026-04-21 06:26 44.42265 52.46108 34983 ft 400 kts 187°
2026-04-21 06:26 44.36716 52.45756 34982 ft 402 kts 187°
2026-04-21 06:27 44.31121 52.45404 34980 ft 400 kts 187°
2026-04-21 06:27 44.25587 52.45055 34977 ft 400 kts 187°
2026-04-21 06:28 44.19992 52.44702 34978 ft 401 kts 187°
2026-04-21 06:28 44.14423 52.44352 34973 ft 401 kts 187°
2026-04-21 06:29 44.08822 52.44000 34971 ft 402 kts 187°
2026-04-21 06:29 44.03270 52.43652 34960 ft 400 kts 187°
2026-04-21 06:30 43.97683 52.43301 34957 ft 401 kts 187°
2026-04-21 06:30 43.92128 52.42952 34957 ft 401 kts 187°
2026-04-21 06:31 43.86571 52.42606 34958 ft 401 kts 187°
2026-04-21 06:31 43.81029 52.42260 34966 ft 400 kts 187°
2026-04-21 06:32 43.75438 52.41914 34970 ft 401 kts 187°
2026-04-21 06:32 43.69946 52.41125 34969 ft 396 kts 195°
2026-04-21 06:33 43.64703 52.38825 34973 ft 393 kts 204°
2026-04-21 06:33 43.59697 52.35954 34975 ft 391 kts 205°
2026-04-21 06:34 43.54660 52.33013 34975 ft 392 kts 205°
2026-04-21 06:34 43.49675 52.30112 34974 ft 391 kts 205°
2026-04-21 06:35 43.44655 52.27194 34970 ft 392 kts 205°
2026-04-21 06:35 43.39616 52.24271 34971 ft 392 kts 205°
2026-04-21 06:36 43.34607 52.21369 34970 ft 392 kts 205°
2026-04-21 06:36 43.29579 52.18462 34970 ft 391 kts 205°
2026-04-21 06:37 43.24525 52.15665 34969 ft 394 kts 201°
2026-04-21 06:37 43.19114 52.14383 34970 ft 401 kts 185°
2026-04-21 06:38 43.13513 52.15198 34965 ft 411 kts 170°
2026-04-21 06:38 43.08218 52.18396 34966 ft 424 kts 156°
2026-04-21 06:39 43.03540 52.23421 34966 ft 436 kts 143°
2026-04-21 06:39 42.99226 52.29284 34964 ft 436 kts 141°
2026-04-21 06:40 42.94962 52.35144 34963 ft 437 kts 142°
2026-04-21 06:40 42.90673 52.40969 34961 ft 436 kts 142°
2026-04-21 06:41 42.86369 52.46766 34963 ft 437 kts 142°
2026-04-21 06:41 42.82037 52.52576 34962 ft 437 kts 142°
2026-04-21 06:42 42.77716 52.58354 34965 ft 437 kts 142°
2026-04-21 06:42 42.73392 52.64119 34967 ft 436 kts 141°
2026-04-21 06:43 42.69053 52.69890 34958 ft 436 kts 142°
2026-04-21 06:43 42.64732 52.75624 34965 ft 435 kts 142°
2026-04-21 06:44 42.60387 52.81377 34952 ft 436 kts 142°
2026-04-21 06:44 42.56067 52.87085 34949 ft 437 kts 142°
2026-04-21 06:45 42.51687 52.92864 34950 ft 438 kts 142°
2026-04-21 06:45 42.47346 52.98578 34952 ft 437 kts 142°
2026-04-21 06:46 42.42992 53.04297 34954 ft 438 kts 142°
2026-04-21 06:46 42.38611 53.10039 34957 ft 438 kts 142°
2026-04-21 06:47 42.34249 53.15744 34938 ft 437 kts 142°
2026-04-21 06:47 42.29884 53.21442 34938 ft 438 kts 142°
2026-04-21 06:48 42.25486 53.27171 34940 ft 438 kts 142°
2026-04-21 06:48 42.21126 53.32842 34948 ft 438 kts 142°
2026-04-21 06:49 42.16745 53.38536 34948 ft 438 kts 142°
2026-04-21 06:49 42.12357 53.44229 34937 ft 439 kts 142°
2026-04-21 06:50 42.07955 53.49926 34933 ft 439 kts 142°
2026-04-21 06:50 42.03561 53.55602 34930 ft 440 kts 142°
2026-04-21 06:51 41.99175 53.61256 34932 ft 440 kts 142°
2026-04-21 06:51 41.94773 53.66920 34931 ft 440 kts 142°
2026-04-21 06:52 41.90368 53.72577 34932 ft 439 kts 143°
2026-04-21 06:52 41.85947 53.78240 34925 ft 440 kts 142°
2026-04-21 06:53 41.81530 53.83888 34926 ft 441 kts 142°
2026-04-21 06:53 41.77105 53.89538 34924 ft 439 kts 142°
2026-04-21 06:54 41.72681 53.95174 34920 ft 440 kts 142°
2026-04-21 06:54 41.68265 54.00790 34919 ft 440 kts 143°
2026-04-21 06:55 41.63819 54.06428 34914 ft 440 kts 142°
2026-04-21 06:55 41.59377 54.12048 34926 ft 441 kts 142°
2026-04-21 06:56 41.54946 54.17646 34911 ft 442 kts 142°
2026-04-21 06:56 41.50477 54.23282 34909 ft 441 kts 142°
2026-04-21 06:57 41.46046 54.28857 34914 ft 442 kts 142°
2026-04-21 06:57 41.41551 54.34505 34918 ft 442 kts 142°
2026-04-21 06:58 41.37099 54.40087 34911 ft 442 kts 142°
2026-04-21 06:58 41.32608 54.45705 34910 ft 443 kts 142°
2026-04-21 06:59 41.28146 54.51274 34909 ft 441 kts 142°
2026-04-21 06:59 41.23682 54.56836 34909 ft 442 kts 142°
2026-04-21 07:00 41.19197 54.62413 34911 ft 441 kts 142°
2026-04-21 07:00 41.14710 54.67986 34913 ft 440 kts 143°
2026-04-21 07:01 41.10242 54.73521 34909 ft 441 kts 143°
2026-04-21 07:01 41.03546 54.81789 34914 ft 442 kts 143°
2026-04-21 07:02 40.99032 54.87353 34907 ft 442 kts 143°
2026-04-21 07:02 40.94545 54.92875 34899 ft 442 kts 143°
2026-04-21 07:03 40.90049 54.98392 34911 ft 442 kts 143°
2026-04-21 07:03 40.85525 55.03931 34922 ft 443 kts 143°
2026-04-21 07:04 40.81010 55.09452 34912 ft 442 kts 143°
2026-04-21 07:04 40.76504 55.14948 34913 ft 444 kts 143°
2026-04-21 07:05 40.71964 55.20478 34915 ft 443 kts 143°
2026-04-21 07:05 40.67469 55.25941 34913 ft 443 kts 143°
2026-04-21 07:06 40.62920 55.31457 34909 ft 445 kts 143°
2026-04-21 07:06 40.58387 55.36947 34906 ft 443 kts 143°
2026-04-21 07:07 40.53863 55.42416 34901 ft 444 kts 143°
2026-04-21 07:07 40.49340 55.47869 34901 ft 443 kts 143°
2026-04-21 07:08 40.44793 55.53343 34907 ft 444 kts 143°
2026-04-21 07:08 40.40218 55.58839 34900 ft 445 kts 143°
2026-04-21 07:09 40.35657 55.64307 34899 ft 446 kts 143°
2026-04-21 07:09 40.31103 55.69759 34895 ft 445 kts 144°
2026-04-21 07:10 40.26560 55.75186 34901 ft 446 kts 143°
2026-04-21 07:10 40.21973 55.80693 34897 ft 446 kts 143°
2026-04-21 07:11 40.17433 55.86150 34875 ft 446 kts 143°
2026-04-21 07:11 40.12886 55.91604 34868 ft 444 kts 143°
2026-04-21 07:12 40.08304 55.97085 34902 ft 447 kts 143°
2026-04-21 07:12 40.03739 56.02536 34888 ft 446 kts 143°
2026-04-21 07:13 39.99128 56.08030 34888 ft 447 kts 143°
2026-04-21 07:13 39.94571 56.13453 34895 ft 446 kts 143°
2026-04-21 07:14 39.89992 56.18889 34760 ft 445 kts 143°
2026-04-21 07:14 39.87712 56.21593 34861 ft 444 kts 143°
2026-04-21 07:14 39.85421 56.24301 34890 ft 448 kts 143°
2026-04-21 07:15 39.80779 56.29740 34882 ft 446 kts 144°
2026-04-21 07:15 39.76177 56.35115 34889 ft 445 kts 144°
2026-04-21 07:16 39.71591 56.40464 34890 ft 446 kts 144°
2026-04-21 07:16 39.66970 56.45844 34892 ft 445 kts 144°
2026-04-21 07:17 39.62367 56.51192 34886 ft 446 kts 144°
2026-04-21 07:17 39.57742 56.56559 34897 ft 445 kts 144°
2026-04-21 07:18 39.53159 56.61871 34893 ft 446 kts 144°
2026-04-21 07:18 39.48513 56.67238 34882 ft 446 kts 144°
2026-04-21 07:19 39.43898 56.72565 34879 ft 444 kts 145°
2026-04-21 07:19 39.39300 56.77861 34890 ft 445 kts 145°
2026-04-21 07:20 39.34671 56.83189 34886 ft 445 kts 144°
2026-04-21 07:20 39.30103 56.88473 34889 ft 444 kts 145°
2026-04-21 07:21 39.25469 56.93823 34875 ft 445 kts 145°
2026-04-21 07:21 39.20889 56.99098 34874 ft 446 kts 145°
2026-04-21 07:22 39.16238 57.04446 34873 ft 447 kts 145°
2026-04-21 07:22 39.13923 57.07105 35010 ft 447 kts 145°
2026-04-21 07:22 39.11629 57.09739 34777 ft 443 kts 145°
2026-04-21 07:23 39.09352 57.12352 34129 ft 443 kts 145°
2026-04-21 07:23 39.07035 57.15002 33351 ft 447 kts 144°
2026-04-21 07:23 39.04713 57.17655 32719 ft 446 kts 144°
2026-04-21 07:23 39.02399 57.20302 32184 ft 443 kts 144°
2026-04-21 07:24 39.00131 57.22894 31619 ft 440 kts 144°
2026-04-21 07:24 38.97850 57.25498 31042 ft 438 kts 143°
2026-04-21 07:24 38.95572 57.28096 30453 ft 436 kts 143°
2026-04-21 07:24 38.93301 57.30683 29862 ft 434 kts 143°
2026-04-21 07:25 38.91061 57.33232 29255 ft 431 kts 143°
2026-04-21 07:25 38.88794 57.35810 28671 ft 428 kts 143°
2026-04-21 07:25 38.86618 57.38306 28088 ft 424 kts 143°
2026-04-21 07:25 38.84404 57.40829 27512 ft 419 kts 144°
2026-04-21 07:26 38.82268 57.43248 26959 ft 414 kts 144°
2026-04-21 07:26 38.80102 57.45694 26395 ft 409 kts 144°
2026-04-21 07:26 38.77998 57.48076 25844 ft 404 kts 143°
2026-04-21 07:26 38.75921 57.50426 25297 ft 397 kts 144°
2026-04-21 07:27 38.73867 57.52746 24758 ft 390 kts 144°
2026-04-21 07:27 38.71851 57.55020 24221 ft 384 kts 144°
2026-04-21 07:27 38.69862 57.57263 23705 ft 379 kts 144°
2026-04-21 07:27 38.67892 57.59481 23173 ft 376 kts 144°
2026-04-21 07:28 38.65950 57.61665 22659 ft 373 kts 144°
2026-04-21 07:28 38.64012 57.63846 22155 ft 372 kts 144°
2026-04-21 07:28 38.62078 57.66033 21717 ft 368 kts 143°
2026-04-21 07:28 38.60278 57.68322 21470 ft 367 kts 139°
2026-04-21 07:29 38.58567 57.70708 21237 ft 364 kts 137°
2026-04-21 07:29 38.56870 57.73119 20973 ft 368 kts 138°
2026-04-21 07:29 38.55146 57.75554 20717 ft 370 kts 138°
2026-04-21 07:29 38.53431 57.77963 20474 ft 368 kts 138°
2026-04-21 07:30 38.51707 57.80379 20216 ft 366 kts 138°
2026-04-21 07:30 38.50000 57.82766 19883 ft 361 kts 138°
2026-04-21 07:30 38.48323 57.85105 19339 ft 362 kts 138°
2026-04-21 07:30 38.46638 57.87451 18914 ft 359 kts 138°
2026-04-21 07:31 38.44943 57.89809 18416 ft 357 kts 138°
2026-04-21 07:31 38.43291 57.92107 17977 ft 355 kts 138°
2026-04-21 07:31 38.41633 57.94411 17492 ft 354 kts 138°
2026-04-21 07:31 38.39958 57.96735 17057 ft 352 kts 138°
2026-04-21 07:32 38.38322 57.99001 16656 ft 348 kts 138°
2026-04-21 07:32 38.36698 58.01253 16238 ft 346 kts 138°
2026-04-21 07:32 38.35082 58.03490 15795 ft 344 kts 138°
2026-04-21 07:32 38.33462 58.05734 15338 ft 342 kts 138°
2026-04-21 07:33 38.31846 58.07961 14872 ft 341 kts 138°
2026-04-21 07:33 38.30260 58.10147 14491 ft 338 kts 138°
2026-04-21 07:33 38.28682 58.12324 14148 ft 334 kts 138°
2026-04-21 07:33 38.27148 58.14445 13954 ft 319 kts 138°
2026-04-21 07:34 38.25665 58.16495 13774 ft 306 kts 138°
2026-04-21 07:34 38.24254 58.18436 13531 ft 299 kts 139°
2026-04-21 07:34 38.22836 58.20382 13156 ft 299 kts 138°
2026-04-21 07:34 38.21437 58.22303 12843 ft 297 kts 138°
2026-04-21 07:35 38.20052 58.24217 12536 ft 293 kts 137°
2026-04-21 07:35 38.18666 58.26126 12271 ft 290 kts 137°
2026-04-21 07:35 38.17311 58.27983 11962 ft 289 kts 138°
2026-04-21 07:35 38.15958 58.29836 11644 ft 285 kts 137°
2026-04-21 07:36 38.14611 58.31679 11295 ft 283 kts 137°
2026-04-21 07:36 38.13283 58.33498 11041 ft 280 kts 137°
2026-04-21 07:36 38.11962 58.35304 10737 ft 278 kts 137°
2026-04-21 07:36 38.10646 58.37105 10435 ft 275 kts 137°
2026-04-21 07:37 38.09352 58.38873 10137 ft 272 kts 136°
2026-04-21 07:37 38.08083 58.40608 9814 ft 270 kts 136°
2026-04-21 07:37 38.06803 58.42360 9452 ft 269 kts 136°
2026-04-21 07:37 38.05544 58.44079 9079 ft 269 kts 135°
2026-04-21 07:38 38.04278 58.45809 8748 ft 266 kts 135°
2026-04-21 07:38 38.03027 58.47518 8591 ft 258 kts 135°
2026-04-21 07:38 38.01837 58.49140 8465 ft 248 kts 135°
2026-04-21 07:38 38.00685 58.50722 8389 ft 239 kts 135°
2026-04-21 07:39 37.99585 58.52226 8273 ft 231 kts 135°
2026-04-21 07:39 37.98499 58.53727 7985 ft 229 kts 134°
2026-04-21 07:39 37.97429 58.55191 7649 ft 227 kts 136°
2026-04-21 07:39 37.96344 58.56618 7382 ft 226 kts 135°
2026-04-21 07:40 37.95276 58.58073 7213 ft 223 kts 134°
2026-04-21 07:40 37.94230 58.59493 7064 ft 222 kts 134°
2026-04-21 07:40 37.93313 58.61081 6938 ft 224 kts 115°
2026-04-21 07:40 37.92822 58.62961 6955 ft 224 kts 109°
2026-04-21 07:41 37.92355 58.64815 6970 ft 223 kts 110°
2026-04-21 07:41 37.91856 58.66705 6931 ft 227 kts 111°
2026-04-21 07:41 37.91359 58.68594 6669 ft 229 kts 110°
2026-04-21 07:41 37.90974 58.70554 6328 ft 231 kts 95°
2026-04-21 07:42 37.91272 58.72533 5976 ft 236 kts 66°
2026-04-21 07:42 37.92289 58.74192 5603 ft 241 kts 43°
2026-04-21 07:42 37.93749 58.75167 5250 ft 244 kts 14°
2026-04-21 07:42 37.95430 58.75108 4934 ft 244 kts 345°
2026-04-21 07:43 37.96939 58.74106 4617 ft 244 kts 320°
2026-04-21 07:43 37.97898 58.72393 4310 ft 244 kts 290°
2026-04-21 07:43 37.98099 58.70275 3994 ft 242 kts 264°
2026-04-21 07:43 37.97580 58.68277 3708 ft 240 kts 243°
2026-04-21 07:44 37.96758 58.66450 3449 ft 233 kts 241°
2026-04-21 07:44 37.95984 58.64705 3224 ft 223 kts 243°
2026-04-21 07:44 37.95247 58.63014 3041 ft 212 kts 243°
2026-04-21 07:44 37.94550 58.61419 2858 ft 208 kts 243°
2026-04-21 07:45 37.93859 58.59829 2676 ft 200 kts 243°
2026-04-21 07:45 37.93206 58.58332 2539 ft 190 kts 242°
2026-04-21 07:45 37.92592 58.56921 2485 ft 175 kts 242°
2026-04-21 07:45 37.91993 58.55554 2484 ft 182 kts 242°
2026-04-21 07:46 37.91386 58.54165 2457 ft 178 kts 243°
2026-04-21 07:46 37.91000 58.52720 2463 ft 174 kts 270°
2026-04-21 07:46 37.91311 58.51301 2505 ft 164 kts 298°
2026-04-21 07:46 37.91793 58.49970 2496 ft 170 kts 294°
2026-04-21 07:47 37.92267 58.48635 2458 ft 159 kts 300°
2026-04-21 07:47 37.92794 58.47429 2463 ft 158 kts 301°
2026-04-21 07:47 37.93341 58.46186 2305 ft 164 kts 301°
2026-04-21 07:47 37.93895 58.44966 2052 ft 159 kts 301°
2026-04-21 07:48 37.94443 58.43739 1840 ft 157 kts 300°
2026-04-21 07:48 37.94979 58.42519 1616 ft 160 kts 300°
2026-04-21 07:48 37.95516 58.41314 1378 ft 156 kts 300°
2026-04-21 07:48 37.96059 58.40117 1199 ft 155 kts 301°
2026-04-21 07:49 37.96592 58.38937 995 ft 157 kts 299°
2026-04-21 07:49 37.97127 58.37744 797 ft 152 kts 299°
2026-04-21 07:49 37.97630 58.36642 705 ft 134 kts 297°
2026-04-21 07:49 37.97992 58.35828 691 ft 58 kts 300°
2026-04-21 07:50 37.98102 58.35572 693 ft 25 kts 299°
2026-04-21 07:50 37.98186 58.35390 694 ft 23 kts 308°
2026-04-21 07:50 37.98298 58.35253 694 ft 20 kts 333°
2026-04-21 07:50 37.98418 58.35170 694 ft 19 kts 330°
2026-04-21 07:51 37.98499 58.35195 693 ft 13 kts 78°
2026-04-21 07:51 37.98470 58.35302 692 ft 13 kts 119°
2026-04-21 07:51 37.98422 58.35411 691 ft 15 kts 120°
2026-04-21 07:51 37.98368 58.35533 691 ft 15 kts 119°
2026-04-21 07:52 37.98310 58.35663 691 ft 17 kts 121°
2026-04-21 07:52 37.98253 58.35789 691 ft 15 kts 120°
2026-04-21 07:52 37.98198 58.35911 689 ft 16 kts 119°
2026-04-21 07:52 37.98141 58.36039 688 ft 16 kts 121°
2026-04-21 07:53 37.98096 58.36142 688 ft 9 kts 117°
2026-04-21 07:53 37.98110 58.36230 688 ft 12 kts 47°
2026-04-21 07:53 37.98116 58.36322 690 ft 11 kts 116°
2026-04-21 07:53 37.98076 58.36413 691 ft 12 kts 117°
2026-04-21 07:54 37.98030 58.36517 691 ft 12 kts 120°
2026-04-21 07:54 37.98034 58.36611 691 ft 12 kts 46°
2026-04-21 07:54 37.98115 58.36673 691 ft 15 kts 29°
2026-04-21 07:54 37.98214 58.36743 692 ft 16 kts 30°
2026-04-21 07:55 37.98272 58.36785 692 ft 0 kts 30°